Simultaneous Nadir Overpasses (SNOs) Predictions

Prediction of SNOs between LANDSAT-8 and NPP Satellite Orbit:

Table of predicted SNOs for the next 14.0 days since TLE Epoch: 12/11/2021
Index Date (LANDSAT-8) Time (LANDSAT-8) Lat,Lon (LANDSAT-8) SZA (LANDSAT-8 ) Date (NPP) Time (NPP) Lat,Lon (NPP) SZA (NPP ) Distance(km) Time Diff (sec)
1 12/11/2021 06:09:18 -70.20, -95.67 86.89 12/11/2021 06:08:22 -70.18, -95.70 86.91 3.14 56
2 12/11/2021 06:58:46 70.04, 71.75 92.96 12/11/2021 06:59:06 70.05, 71.80 92.97 1.90 20
3 12/11/2021 07:48:28 -69.27,-121.67 87.80 12/11/2021 07:49:35 -69.29,-119.76 87.80 74.90 67
4 12/13/2021 22:25:47 -70.13, 20.12 86.76 12/13/2021 22:25:12 -70.12, 20.17 86.78 2.89 35
5 12/13/2021 23:15:14 70.03,-172.39 93.14 12/13/2021 23:15:57 70.05,-172.41 93.16 2.30 43
6 12/16/2021 13:52:40 70.55, -31.03 93.79 12/16/2021 13:51:29 70.56, -32.07 93.82 38.42 71
7 12/16/2021 14:42:16 -70.11, 135.97 86.64 12/16/2021 14:42:04 -70.11, 135.96 86.64 0.51 12
8 12/16/2021 15:31:43 70.00, -56.54 93.25 12/16/2021 15:32:48 69.99, -56.55 93.24 1.48 65
9 12/19/2021 06:09:15 70.19, 84.33 93.52 12/19/2021 06:08:14 70.20, 84.29 93.53 1.45 61
10 12/19/2021 06:58:45 -70.09,-108.19 86.59 12/19/2021 06:58:56 -70.11,-108.26 86.56 3.58 11
11 12/19/2021 07:48:21 69.48, 58.62 92.82 12/19/2021 07:49:30 69.46, 60.01 92.78 54.20 69
12 12/21/2021 22:25:44 70.16,-159.83 93.52 12/21/2021 22:25:05 70.15,-159.85 93.51 1.76 39
13 12/21/2021 23:15:14 -70.06, 7.65 86.59 12/21/2021 23:15:47 -70.06, 7.60 86.59 2.11 33
14 12/24/2021 13:52:33 -70.89, 149.49 85.80 12/24/2021 13:51:25 -70.94, 147.34 85.70 78.49 68
15 12/24/2021 14:42:12 70.12, -44.01 93.45 12/24/2021 14:41:55 70.10, -44.01 93.43 2.45 17
16 12/24/2021 15:31:42 -70.03, 123.49 86.65 12/24/2021 15:32:37 -70.01, 123.45 86.67 2.04 55



Historial Predications of SNOs between LANDSAT-8 and NPP
